sat.trackr.live / text

‹ back to catalog

ANIK F2

NORAD 28378 · 2004-027A

PAYLOAD ACTIVE UNKNOWN

§ Identity

Operator
Country
CA
Launch date
2004-07-18
Launch site
FRGUI
Launch vehicle
Mass (kg)
RCS (m²)
36.63

Purposes: comms

External: N2YO · Heavens-Above · Gunter

§ Orbital elements

Epoch: 2026-05-25T03:12:55.852128Z

Period
1,436.10 min
Inclination
3.2296°
Eccentricity
0.0004449
Mean motion
1.00271812 rev/d
Perigee alt
35,767.8 km
Apogee alt
35,805.3 km
Semi-major
42,164.7 km
B*
0.0000e+0
RAAN
79.7461°
Arg perigee
351.3346°
Mean anomaly
108.7417°
Rev number
4,103

§ Raw data

ANIK F21 28378U 04027A   26145.13397977 -.00000051  00000+0  00000+0 0  99902 28378   3.2296  79.7461 0004449 351.3346 108.7417  1.00271812 41030

JSON: /api/v1/satellites/28378 · /tle

For live sub-satellite position, see the globe view (requires WebGL).

§ Visibility from observer

Set your observer location to see the next 7 days of passes ≥ 10°. The values pass through the URL so the page stays shareable.

No JS? Fill the form by hand. The geolocation button needs JavaScript.